Home   Weather   Bridgeport   Past weeks

Flag for USA Past Weather in Bridgeport, Connecticut, USA — Yesterday and Last 2 Weeks

Now
24 °F

Clear.


Feels Like: 20 °F
Forecast: 27 / 37 °F
Wind: 3 mph from Northwest

Location: Sikorsky Memorial Airport

Current Time: Dec 10, 2016 at 6:00:12 am

Latest Report: Dec 10, 2016 at 4:52 am


Visibility: 10 mi

Pressure: 30.32 "Hg

Humidity: 65%

Dew Point: 14 °F

Location of BridgeportLocation

Past Weather in Bridgeport — Graph

°F

Bridgeport Temperature Yesterday

Maximum temperature yesterday: 41 °F (at 11:52 am)
Minimum temperature yesterday: 28 °F (at 11:52 pm)
Average temperature yesterday: 35 °F

High & Low Weather Summary for the Past Weeks

 TemperatureHumidityPressure
High60 °F (Nov 29, 3:59 pm)96% (Nov 29, 11:52 pm)30.31 "Hg (Nov 29, 11:52 pm)
Low25 °F (Dec 10, 3:52 am)35% (Dec 9, 12:52 pm)29.43 "Hg (Dec 1, 2:52 am)
Average45 °F66%30.01 "Hg
* Reported Nov 25 3:52 am — Dec 10 3:52 am, Bridgeport, Weather by CustomWeather, © 2016

Note: Actual official high and low records may vary slightly from our data, if they occured in-between our weather recording intervals... More about our weather records

Advertising

Bridgeport Weather History for the Previous 24 Hours

Scroll right to see more
 ConditionsComfort  
Time TempWeatherWind HumidityBarometerVisibility
3:52 am
Sat, Dec 10
25 °FClear.3 mph63%30.31 "Hg10 mi
2:52 am26 °FClear.7 mph60%30.31 "Hg10 mi
1:52 am26 °FClear.6 mph57%30.28 "Hg10 mi
12:52 am27 °FClear.5 mph53%30.25 "Hg10 mi
11:52 pm
Fri, Dec 9
28 °FClear.6 mph51%30.26 "Hg10 mi
10:52 pm29 °FClear.8 mph47%30.26 "Hg10 mi
8:52 pm31 °FClear.16 mph40%30.23 "Hg10 mi
7:52 pm32 °FClear.13 mph43%30.22 "Hg10 mi
6:52 pm34 °FMostly cloudy.16 mph38%30.20 "Hg10 mi
5:52 pm35 °FPassing clouds.9 mph36%30.17 "Hg10 mi
4:52 pm36 °FClear.16 mph35%30.14 "Hg10 mi
3:52 pm37 °FOvercast.18 mph36%30.10 "Hg10 mi
2:52 pm39 °FOvercast.21 mph39%30.08 "Hg10 mi
1:52 pm39 °FScattered clouds.17 mph41%30.05 "Hg10 mi
12:52 pm41 °FPartly sunny.16 mph35%30.04 "Hg10 mi
11:52 am41 °FPartly sunny.15 mph38%30.05 "Hg10 mi
10:52 am39 °FSunny.17 mph39%30.06 "Hg10 mi
9:52 am37 °FSunny.17 mph45%30.07 "Hg10 mi
8:52 am37 °FSunny.14 mph46%30.06 "Hg10 mi
7:52 am35 °FSunny.10 mph50%30.03 "Hg10 mi
6:52 am34 °FClear.12 mph54%30.01 "Hg10 mi
Weather by CustomWeather, © 2016

See weather overviewHow to use our weather pages